Location: Unspecified
(40.7945°N, 111.1337°W)
Time: 15:02:16
(UTC-06:00)

Altair - Pass Details

Date: 26 June 2019
Orbit: 1501 x 1682 km, 47.2° (Epoch: 21 October)

Event Time Altitude Azimuth Distance (km) Brightness Sun altitude
Rises 22:45:49 0° 278° (W) 4,726 10.8 -15.7°
Reaches altitude 10° 22:48:56 10° 282° (WNW) 3,766 10.3 -16.0°
Maximum altitude 22:58:25 60° 1° (N) 1,814 8.1 -17.1°
Drops below altitude 10° 23:08:16 10° 81° (E) 3,903 9.4 -18.2°
Sets 23:11:33 0° 85° (E) 4,907 9.9 -18.5°
